Weather History for Burns, OR

Change the Weather History Date:

Thursday, September 26, 2013

  Actual Average Record
Temperature  
Mean Temperature 44 °F 52 °F  
Max Temperature 52 °F 72 °F 91 °F (1963)
Min Temperature 36 °F 33 °F 22 °F (1999)
Degree Days  
Heating Degree Days 21 13  
Month to date heating degree days 188 226  
Since 1 July heating degree days 224 363  
Cooling Degree Days 0 0  
Month to date cooling degree days 21 7  
Year to date cooling degree days 372 213  
Moisture  
Dew Point 34 °F    
Average Humidity 70    
Maximum Humidity 85    
Minimum Humidity 54    
Precipitation  
Precipitation 0.00 in 0.01 in 0.28 in (1986)
Month to date precipitation 1.13 0.37  
Year to date precipitation 5.05 7.35  
Sea Level Pressure  
Sea Level Pressure 29.97 in    
Wind  
Wind Speed 14 mph (WNW)    
Max Wind Speed 32 mph    
Max Gust Speed 38 mph    
Visibility 10 miles    
Events      
T = Trace of Precipitation, MM = Missing Value Source: NWS Daily Summary

Daily Weather History Graph

Daily Weather History Graph

Search for Another Location

Airport:

Trip Planner

Search our weather history database for the weather conditions in past years. The results will help you decide how hot, cold, wet, or windy it might be!

Date:

Astronomy

Sep. 26, 2013 Rise Set
Actual Time 6:47 AM PDT 6:45 PM PDT
Civil Twilight 6:19 AM PDT 7:13 PM PDT
Nautical Twilight 5:46 AM PDT 7:47 PM PDT
Astronomical Twilight 5:11 AM PDT 8:20 PM PDT
Moon 11:38 PM PDT (9/26) 1:53 PM PDT (9/26)
Length of Visible Light 12h 54m
Length of Day
11h 57m
Waning Gibbous, 53% of the Moon is Illuminated
Sep 26
Waning Gibbous
Sep 26
Last Quarter
Oct 4
New
Oct 11
First Quarter
Oct 18
Full

Hourly Weather History & Observations

Time (PDT) Temp. Windchill Dew Point Humidity Pressure Visibility Wind Dir Wind Speed Gust Speed Precip Events Conditions
12:53 AM 39.0 °F 33.4 °F 35.1 °F 86% 29.91 in 10.0 mi West 8.1 mph - N/A   Overcast
1:53 AM 39.9 °F 35.8 °F 35.1 °F 83% 29.90 in 10.0 mi West 5.8 mph - N/A   Overcast
2:53 AM 41.0 °F 34.7 °F 36.0 °F 82% 29.90 in 10.0 mi West 10.4 mph 18.4 mph N/A   Overcast
3:53 AM 41.0 °F 34.7 °F 35.1 °F 79% 29.89 in 10.0 mi West 10.4 mph 20.7 mph N/A   Overcast
4:53 AM 39.9 °F 33.4 °F 35.1 °F 83% 29.90 in 10.0 mi West 10.4 mph - N/A   Overcast
5:53 AM 39.0 °F 34.8 °F 34.0 °F 82% 29.91 in 10.0 mi West 5.8 mph - N/A   Clear
6:53 AM 39.9 °F 35.1 °F 34.0 °F 79% 29.91 in 10.0 mi SW 6.9 mph - N/A   Overcast
7:53 AM 41.0 °F 33.9 °F 34.0 °F 76% 29.91 in 10.0 mi West 12.7 mph - N/A   Overcast
8:53 AM 42.1 °F 36.6 °F 34.0 °F 73% 29.93 in 10.0 mi West 9.2 mph - N/A   Overcast
9:53 AM 44.1 °F 35.7 °F 34.0 °F 68% 29.93 in 10.0 mi WNW 20.7 mph 32.2 mph N/A   Overcast
10:53 AM 46.0 °F 38.3 °F 34.0 °F 63% 29.92 in 10.0 mi WNW 20.7 mph 28.8 mph N/A   Overcast
11:53 AM 48.0 °F - 34.0 °F 58% 29.93 in 10.0 mi NW 25.3 mph 33.4 mph N/A   Overcast
12:53 PM 48.0 °F - 36.0 °F 63% 29.95 in 10.0 mi WNW 24.2 mph 31.1 mph N/A   Overcast
1:53 PM 52.0 °F - 37.0 °F 57% 29.94 in 10.0 mi NW 24.2 mph 31.1 mph N/A   Partly Cloudy
2:53 PM 51.1 °F - 35.1 °F 54% 29.95 in 10.0 mi WNW 25.3 mph 33.4 mph N/A   Clear
3:53 PM 51.1 °F - 35.1 °F 54% 29.96 in 10.0 mi WNW 24.2 mph 34.5 mph N/A   Clear
4:53 PM 50.0 °F - 35.1 °F 57% 30.00 in 10.0 mi WNW 19.6 mph 33.4 mph N/A   Clear
5:53 PM 48.0 °F - 35.1 °F 61% 30.02 in 10.0 mi NW 16.1 mph 24.2 mph N/A   Scattered Clouds
6:53 PM 44.1 °F 36.8 °F 34.0 °F 68% 30.05 in 10.0 mi WNW 16.1 mph - N/A   Partly Cloudy
7:53 PM 43.0 °F 35.7 °F 34.0 °F 71% 30.06 in 10.0 mi WNW 15.0 mph 26.5 mph N/A   Partly Cloudy
8:53 PM 39.9 °F 34.5 °F 34.0 °F 79% 30.09 in 10.0 mi West 8.1 mph - N/A   Scattered Clouds
9:53 PM 37.0 °F 34.5 °F 33.1 °F 86% 30.10 in 10.0 mi West 3.5 mph - N/A   Partly Cloudy
10:53 PM 39.9 °F 32.1 °F 33.1 °F 77% 30.09 in 10.0 mi West 13.8 mph 18.4 mph N/A   Overcast
11:53 PM 37.0 °F 30.4 °F 32.0 °F 82% 30.10 in 10.0 mi West 9.2 mph - N/A   Clear